THORAD DELTA 1 DEB, 8174

Orbit data source: Space-Track

THORAD DELTA 1 DEB, 8174 is space debris in SSO originally from a launch on Fri, 15 Nov 1974 UTC launched from the Air Force Western Test Range (AFWTR). Debris objects in space refer to the collection of defunct objects orbiting the Earth. Examples of debris include non-operational satellites, rocket bodies, and fragments generated from explosions, collisions, or faulty payload assembly.

Loading next visibility...
Identifier
8174, 1974-089AQ
Orbit
SSO
Country
Flag of USUS
Related business
Manufacturer
Unknown
Mission
Spacecraft
Bus & Motor
Unknown
Mass
Unknown
Launch date (UTC)
1974-11-15 (52 years ago)
Launch vehicle
Unknown
Launch site
Air Force Western Test Range (AFWTR)
Object type
Payload
Rocket body
Debris
Shape & HBR
Unknown shape, 0.2 m
Radar Cross Section
Medium (>0.1 m² and <1 m²)

Expand to show TLE details & history
Last TLE update: 12 hours ago

TLE from 12 hours ago
0 THORAD DELTA 1 DEB
1 08174U 74089AQ  26178.22147890  .00000001  00000-0  29883-3 0  9999
2 08174 101.9553 168.3093 0065038 311.4643  58.8329 12.53448263359493
Epoch: 2026-06-27T05:18Z
TLE epoch observation values (Epoch: 2026-06-27T05:18:55.776Z)
Latitude
10.65288°
Longitude
170.96681°
Altitude
1,425.819 km
Speed
7.161 km/s
True Right ascension
11h 04m 09s
True Declination
10° 35' 45"
Sunlit
Object was in daylight at epoch
Visualization orbit readout
Latitude
Unknown
Longitude
Unknown
Altitude
Unknown
Speed
Unknown
Apparent Right ascension
Unknown
Apparent Declination
Unknown
Sunlit
N/A
Visualization observer readout
Local Sidereal Time
05:10:07
Azimuth
Unknown
Elevation
Unknown
Doppler factor
Unknown
Orbital elements
Apogee altitude
1,498.557 km
Perigee altitude
1,396.762 km
Semi-major axis
7,825.796 km
Eccentricity
0.0065
Inclination
101.9553°
RAAN
168.3093°
Arg. of periapsis
311.4643°
True anomaly
59.47329°
Mean anomaly
58.8329°
Eccentric anomaly
59.15283°
Mean motion
3.13509 °/min
Orbital period
114.83 mins
BSTAR
0.00029883
Loading maneuver chart data...
Computing Atmospheric mass density...

Documentation

Showing up to 5 results
|